Tracking 30744 objects as of 24-Jun-2025
HD Live streaming from Space Station
objects crossing your sky now

FREGAT R/B

Track FREGAT R/B now!


NORAD ID: 45609
Int'l Code: 2020-031B
Perigee: 1,626.1 km
Apogee: 38,609.2 km
Inclination: 63.6 °
Period: 715.1 minutes
Semi major axis: 26488 km
RCS: Unknown
Launch date: May 22, 2020
Source: Commonwealth of Independent States (former USSR) (CIS)
Launch site: PLESETSK MISSILE AND SPACE COMPLEX (PKMTR)

Note: This is a ROCKET BODY
Your satellite tracking list
Your tracking list is empty




NASA's NSSDC Master Catalog

Two Line Element Set (TLE):
1 45609U 20031B   25172.10508422  .00000503  00000-0  00000-0 0  9997
2 45609  63.5810 109.0399 6980928 258.4286  22.0643  2.01378333 37385
Source of the keplerian elements: AFSPC